CST,Max TemperatureF,Mean TemperatureF,Min TemperatureF,Max Dew PointF,MeanDew PointF,Min DewpointF,Max Humidity, Mean Humidity, Min Humidity, Max Sea Level PressureIn, Mean Sea Level PressureIn, Min Sea Level PressureIn, Max VisibilityMiles, Mean VisibilityMiles, Min VisibilityMiles, Max Wind SpeedMPH, Mean Wind SpeedMPH, Max Gust SpeedMPH,PrecipitationIn, CloudCover, Events, WindDirDegrees
2013-12-1,45,36,28,32,30,27,94,79,60,30.12,30.05,29.98,10,8,5,9,5,,0.00,2,,13
2013-12-2,43,38,32,37,33,31,93,82,64,29.97,29.82,29.70,10,6,3,17,7,23,0.02,7,Rain,108
2013-12-3,47,42,38,47,43,36,98,96,93,29.71,29.68,29.63,2,1,0,13,7,16,0.00,8,Fog,141
2013-12-4,54,44,34,54,46,31,99,95,85,29.76,29.63,29.49,10,4,0,25,10,36,0.01,8,Fog-Rain,178
2013-12-5,33,26,20,30,17,12,89,74,66,30.29,30.08,29.77,10,10,10,29,19,34,0.00,3,,287
2013-12-6,20,16,12,13,9,6,78,71,60,30.57,30.40,30.26,10,10,10,16,13,18,0.00,2,,318
2013-12-7,20,12,5,7,5,2,85,70,47,30.71,30.63,30.56,10,10,10,12,7,9,0.00,0,,337
2013-12-8,24,18,13,23,16,8,95,82,69,30.58,30.22,29.97,10,6,0,17,9,23,0.03,7,Snow,76
2013-12-9,23,12,1,22,9,-5,94,77,65,30.27,30.15,29.97,10,9,3,22,14,30,0.02,3,Snow,267
2013-12-10,23,12,0,13,6,-6,83,68,56,30.30,30.16,30.03,10,10,7,31,11,39,0.00,3,,253
2013-12-11,20,10,0,16,7,-8,92,78,64,30.60,30.44,30.27,10,8,1,17,6,23,0.02,4,Snow,298
2013-12-12,25,12,-2,14,5,-8,88,73,59,30.56,30.37,30.21,10,10,10,18,8,24,0.00,2,,233
2013-12-13,31,20,10,27,19,8,96,85,68,30.20,30.11,30.05,10,8,1,14,5,,0.06,3,Snow,95
2013-12-14,31,24,16,30,25,14,96,92,86,30.05,29.98,29.91,10,5,1,16,13,20,0.00,6,Snow,14
2013-12-15,18,14,10,15,9,5,88,78,70,30.12,30.07,30.00,10,9,2,20,12,28,0.00,7,Snow,284
2013-12-16,19,14,9,18,12,6,94,86,76,30.13,30.08,30.01,10,7,1,8,5,,0.01,8,Snow,93
2013-12-17,34,26,19,28,22,15,96,83,66,30.15,30.06,29.99,10,6,1,21,11,30,0.00,5,Snow,268
2013-12-18,39,26,13,32,19,11,88,74,57,30.17,30.01,29.83,10,10,10,26,13,32,0.00,0,,206
2013-12-19,41,34,27,36,32,26,99,88,75,29.90,29.84,29.76,10,8,1,15,7,,0.03,3,Rain,117
2013-12-20,34,32,30,34,33,30,100,98,96,29.83,29.77,29.73,7,3,1,16,9,17,0.09,8,Rain,38
2013-12-21,34,31,28,33,30,27,99,96,90,29.86,29.77,29.58,10,4,1,17,2,21,0.10,8,Rain,31
2013-12-22,34,28,21,33,27,18,99,91,86,30.17,29.86,29.60,10,8,1,15,5,13,0.17,8,Rain-Snow,29
2013-12-23,21,10,0,18,3,-6,90,79,72,30.51,30.38,30.18,10,9,3,0,0,,0.00,3,Snow,-1
2013-12-24,20,8,-4,14,1,-9,82,76,65,30.58,30.48,30.32,10,10,10,0,0,,0.00,2,,-1
2013-12-25,28,24,20,26,21,14,92,85,74,30.32,30.20,30.14,10,8,2,20,5,24,0.00,8,Snow,249
2013-12-26,36,26,17,31,23,13,88,80,73,30.29,30.21,30.16,10,10,5,20,13,28,0.00,5,,232
2013-12-27,41,33,25,32,29,24,98,81,66,30.29,30.20,30.11,10,9,0,21,8,26,0.00,1,Fog,221
2013-12-28,47,40,33,36,33,30,90,76,61,30.11,29.99,29.84,10,10,10,18,12,21,0.00,0,,211
2013-12-29,40,25,9,32,23,4,96,85,69,30.24,29.98,29.79,10,8,2,23,14,29,0.00,6,Snow,297
2013-12-30,13,6,0,8,1,-6,89,74,61,30.35,30.26,30.19,10,8,1,16,7,20,0.02,4,Snow,303
2013-12-31,14,6,-3,10,5,-7,91,83,72,30.38,30.28,30.19,10,10,7,15,4,,0.00,5,Snow,11